Flag for Austria Weather past 2 weeks in Jennersdorf, Burgenland, Austria

Now
54 °F

Cool.


Feels Like: 51 °F
Forecast: 52 / 56 °F
Wind: 10 mph from Northeast

Location: Murska Sobota

Current Time: May 22, 2015 at 5:36:46 PM

Latest Report: May 22, 2015 at 5:00 PM


Visibility: N/A

Pressure: 29.99 "Hg

Humidity: 88%

Dew point: 50 °F

Location of JennersdorfLocation

Historic Weather in Jennersdorf — Graph

°F

Jennersdorf temperature yesterday

Maximum temperature yesterday: 56 °F (at 2:00 PM)
Minimum temperature yesterday: 50 °F (at 5:00 AM)
Average temperature yesterday: 53 °F

Past Weeks' High & Low Weather Summary

 TemperatureHumidityPressure
High82 °F (May 19, 4:00 PM)99% (May 17, 5:00 AM)30.38 "Hg (May 17, 5:00 AM)
Low42 °F (May 12, 6:00 AM)29% (May 11, 6:00 PM)29.69 "Hg (May 19, 5:00 PM)
Average61 °F74%30.04 "Hg
* Reported May 7 4:00 PM — May 22 4:00 PM, Jennersdorf, Weather by CustomWeather, © 2015

Note: Actual official high and low records may vary slightly from our data, if they occured in-between our weather recording intervals... More about our weather records

Advertising

Jennersdorf weather history for previous 24 hours

 ConditionsComfort  
Time TempWeatherWind HumidityBarometerVisibility
4:00 PM
Fri, May 22
53 °FCool.9 mph88%30.01 "HgN/A
3:00 PM53 °FLight rain. Overcast.8 mph88%30.03 "Hg4 mi
2:00 PM53 °FLight rain. Overcast.5 mph88%30.06 "Hg4 mi
1:00 PM53 °FCool.5 mph89%30.08 "HgN/A
12:00 PM53 °FCool.6 mph89%30.09 "HgN/A
11:00 AM53 °FCool.5 mph85%30.11 "HgN/A
10:00 AM54 °FCool.5 mph81%30.09 "HgN/A
9:00 AM54 °FCool.3 mph82%30.10 "HgN/A
8:00 AM53 °FLight rain. Overcast.2 mph83%30.10 "Hg4 mi
7:00 AM53 °FLight rain. Overcast.1 mph82%30.11 "Hg4 mi
6:00 AM54 °FCool.5 mph75%30.09 "HgN/A
5:00 AM54 °FCool.5 mph77%30.09 "HgN/A
4:00 AM54 °FCool.5 mph73%30.10 "HgN/A
3:00 AM55 °FCool.5 mph71%30.11 "HgN/A
2:00 AM55 °FCool.5 mph68%30.12 "HgN/A
1:00 AM55 °FCool.3 mph69%30.11 "HgN/A
12:00 AM55 °FCool.5 mph70%30.13 "HgN/A
11:00 PM
Thu, May 21
55 °FCool.3 mph71%30.14 "HgN/A
10:00 PM55 °FCool.5 mph73%30.13 "HgN/A
9:00 PM55 °FCool.3 mph76%30.12 "HgN/A
8:00 PM55 °FOvercast.3 mph79%30.09 "Hg6 mi
7:00 PM56 °FCool.2 mph82%30.09 "HgN/A
6:00 PM55 °FCool.1 mph87%30.10 "HgN/A
5:00 PM54 °FCool.3 mph89%30.09 "HgN/A
Weather by CustomWeather, © 2015

See weather overviewHow to use our weather pages